Showing default

GEESAT 4-08, 65126

Orbit data source: Space-Track

GEESAT 4-08, 65126 is a payload satellite owned by GeeSpace (CN) in LEO that was launched on Fri, 08 Aug 2025 UTC via a JIELONG-3 launch vehicle from the Yellow Sea Launch Area, China (YSLA). Payload-class satellites include a variety of spacecraft equipped with specific instruments for various scientific and technological missions. These include communications satellites like Starlink; space stations such as the ISS; scientific satellites like the Hubble; Earth observation satellites from companies like Planet Labs, Umbra, and HawkEye 360; GPS; miniature CubeSats for education and research; and military/defense satellites.

Loading next visibility...
Identifier
65126, 2025-170H
Orbit
LEO
Country
Flag of CNCN / PRC
Related business
Manufacturer
GWCG
Mission
Operational Commercial Navigation
Bus & Motor
GPS100, Unknown motor
Mass
130 kg wet, 130 kg dry
Launch date (UTC)
2025-08-08 (6 months ago)
Launch vehicle
JIELONG-3
Launch site
Yellow Sea Launch Area, China (YSLA)
Object type
Payload
Rocket body
Debris
Shape & HBR
Box + 2 Pan, 1.0 m
Radar Cross Section
0.833 m², Large (>1 m²)

Expand to show TLE details & history
Last TLE update: 5 hours ago

TLE from 5 hours ago
0 GEESAT 4-08
1 65126U 25170H   26035.15180000  .00046142  00000-0  10201-2 0  9999
2 65126  49.9769  38.2201 0009120 159.4894 200.6437 15.43284690 27119
Epoch: 2026-02-04T03:38Z
TLE epoch observation values (Epoch: 2026-02-04T03:38:35.520Z)
Latitude
0.00002°
Longitude
-150.75037°
Altitude
442.795 km
Speed
7.645 km/s
True Right ascension
02h 32m 52s
True Declination
0° 00' 00"
Sunlit
Object was in daylight at epoch
Visualization orbit readout
Latitude
Unknown
Longitude
Unknown
Altitude
Unknown
Speed
Unknown
Apparent Right ascension
Unknown
Apparent Declination
Unknown
Sunlit
N/A
Visualization observer readout
Local Sidereal Time
10:15:12
Azimuth
Unknown
Elevation
Unknown
Doppler factor
Unknown
Orbital elements
Apogee altitude
443.421 km
Perigee altitude
430.989 km
Semi-major axis
6,815.342 km
Eccentricity
0.00091
Inclination
49.9769°
RAAN
38.2201°
Arg. of periapsis
159.4894°
True anomaly
200.60689°
Mean anomaly
200.6437°
Eccentric anomaly
200.62529°
Mean motion
3.85755 °/min
Orbital period
93.32 mins
BSTAR
0.0010201
Loading maneuver chart data...
Computing Atmospheric mass density...
Loading historical data...
Loading historical data...
Loading historical data...
Loading historical data...
Loading historical data...
Loading historical data...
Loading historical data...

Documentation

Showing up to 5 results
|